Airport Information

KACV - Arcata Airport

KACV 251053Z AUTO 17008KT 10SM OVC060 15/03 A2987 RMK AO2 PK WND 15032/1000 RAB0956E18B46E51 SLP119 P0000 T01500028


  • General Information

  • Coordinates: N 40°58'41"/ W 124°6'30"
  • Location: N/A
  • Surveyed Elevation: 221 MSL

Operations

Flow Name Active Runways Conditions

Green background denotes normal operations.


Common Frequencies

Callsign Frequency Position Name

More at the Document Center


Charts